Presidio, TX

11:15 AM CST on February 26, 2017 (GMT -0600)
Presidio Lely Intl, Presidio,

Weather History for KPRS - February, 2014

Change the Weather History Date:

Friday, February 14, 2014

  Actual Average (KMRF) Record (KMRF)
Temperature  
Mean Temperature 66 °F -  
Max Temperature 86 °F 59 °F 75 °F (2014)
Min Temperature 47 °F 29 °F 19 °F (2004)
Cooling Degree Days 2    
Growing Degree Days 16 (Base 50)    
Moisture  
Dew Point 19 °F    
Average Humidity 18    
Maximum Humidity 30    
Minimum Humidity 8    
Precipitation  
Precipitation 0.00 in - - ()
Sea Level Pressure  
Sea Level Pressure 30.02 in    
Wind  
Wind Speed 5 mph (NW)    
Max Wind Speed 17 mph    
Max Gust Speed 24 mph    
Visibility 10 miles    
Events      
Averages and records for this station are not official NWS values.
T = Trace of Precipitation, MM = Missing Value Source: NWS Daily Summary

Daily Weather History Graph

Daily Weather History Graph

Search for Another Location

Airport or City:

Trip Planner

Search our weather history database for the weather conditions in past years. The results will help you decide how hot, cold, wet, or windy it might be!

Date:

Astronomy

Feb. 14, 2014 Rise Set
Actual Time 7:37 AM CST 6:45 PM CST
Civil Twilight 7:13 AM CST 7:10 PM CST
Nautical Twilight 6:45 AM CST 7:38 PM CST
Astronomical Twilight 6:17 AM CST 8:06 PM CST
Moon 6:47 PM CST (2/14) 7:08 AM CST (2/14)
Length of Visible Light 11h 57m
Length of Day
11h 08m
Full, 100% of the Moon is Illuminated
Feb 14
Full
Feb 14
Full
Feb 22
Last Quarter
Mar 1
New
Mar 8
First Quarter

Hourly Weather History & Observations

Time (CST) Temp. Dew Point Humidity Pressure Visibility Wind Dir Wind Speed Gust Speed Precip Events Conditions
12:15 AM 58.6 °F 19.6 °F 22% 29.99 in 10.0 mi ENE 3.5 mph - N/A   Clear
12:35 AM 59.4 °F 19.9 °F 22% 29.99 in 10.0 mi Calm Calm - N/A   Clear
12:55 AM 59.5 °F 20.5 °F 22% 29.99 in 10.0 mi Calm Calm - N/A   Clear
1:15 AM 57.9 °F 20.1 °F 23% 29.98 in 10.0 mi Calm Calm - N/A   Clear
1:35 AM 54.1 °F 18.0 °F 24% 29.98 in 10.0 mi NE 3.5 mph - N/A   Clear
1:55 AM 54.1 °F 18.9 °F 25% 29.98 in 10.0 mi North 4.6 mph - N/A   Clear
2:15 AM 52.5 °F 18.9 °F 27% 29.97 in 10.0 mi NNE 4.6 mph - N/A   Clear
2:35 AM 51.8 °F 18.7 °F 27% 29.97 in 10.0 mi North 6.9 mph - N/A   Clear
2:55 AM 52.9 °F 19.2 °F 27% 29.98 in 10.0 mi North 9.2 mph - N/A   Clear
3:15 AM 53.8 °F 19.4 °F 26% 29.99 in 10.0 mi North 9.2 mph - N/A   Clear
3:35 AM 53.1 °F 19.4 °F 27% 29.99 in 10.0 mi North 6.9 mph - N/A   Clear
3:55 AM 51.6 °F 19.0 °F 28% 29.99 in 10.0 mi North 6.9 mph - N/A   Clear
4:15 AM 53.4 °F 19.2 °F 26% 30.00 in 10.0 mi NNE 4.6 mph - N/A   Clear
4:35 AM 51.6 °F 18.5 °F 27% 30.00 in 10.0 mi NNE 4.6 mph - N/A   Clear
4:55 AM 50.4 °F 18.3 °F 28% 29.99 in 10.0 mi North 3.5 mph - N/A   Clear
5:15 AM 50.0 °F 18.5 °F 29% 30.00 in 10.0 mi NE 5.8 mph - N/A   Clear
5:35 AM 49.3 °F 18.3 °F 29% 30.00 in 10.0 mi NE 4.6 mph - N/A   Clear
5:55 AM 51.1 °F 18.7 °F 28% 30.00 in 10.0 mi NE 4.6 mph - N/A   Clear
6:15 AM 48.4 °F 17.8 °F 30% 30.01 in 10.0 mi North 5.8 mph - N/A   Clear
6:35 AM 49.1 °F 18.1 °F 29% 30.02 in 10.0 mi North 8.1 mph - N/A   Clear
6:55 AM 49.6 °F 18.3 °F 29% 30.02 in 10.0 mi North 6.9 mph - N/A   Clear
7:15 AM 48.4 °F 18.1 °F 30% 30.03 in 10.0 mi North 4.6 mph - N/A   Clear
7:35 AM 47.7 °F 17.8 °F 30% 30.04 in 10.0 mi North 6.9 mph - N/A   Clear
7:55 AM 48.4 °F 18.1 °F 30% 30.05 in 10.0 mi North 9.2 mph - N/A   Clear
8:15 AM 49.8 °F 18.3 °F 29% 30.06 in 10.0 mi North 4.6 mph - N/A   Clear
8:35 AM 53.4 °F 19.0 °F 26% 30.07 in 10.0 mi Calm Calm - N/A   Clear
8:55 AM 54.9 °F 19.4 °F 25% 30.08 in 10.0 mi Calm Calm - N/A   Clear
9:15 AM 56.3 °F 19.8 °F 24% 30.09 in 10.0 mi Calm Calm - N/A   Clear
9:35 AM 56.7 °F 19.9 °F 24% 30.09 in 10.0 mi SW 3.5 mph - N/A   Clear
9:55 AM 58.1 °F 20.3 °F 23% 30.10 in 10.0 mi Calm Calm - N/A   Clear
10:15 AM 60.6 °F 20.5 °F 21% 30.10 in 10.0 mi Calm Calm - N/A   Clear
10:35 AM 62.6 °F 20.7 °F 20% 30.09 in 10.0 mi Calm Calm - N/A   Clear
10:55 AM 65.3 °F 20.3 °F 18% 30.10 in 10.0 mi Calm Calm - N/A   Clear
11:15 AM 68.0 °F 20.7 °F 17% 30.09 in 10.0 mi WSW 5.8 mph - N/A   Clear
11:35 AM 71.2 °F 19.9 °F 14% 30.09 in 10.0 mi SW 6.9 mph - N/A   Clear
11:55 AM 72.9 °F 20.1 °F 14% 30.09 in 10.0 mi SSW 6.9 mph - N/A   Clear
12:15 PM 73.9 °F 20.1 °F 13% 30.08 in 10.0 mi SSW 8.1 mph - N/A   Clear
12:35 PM 76.6 °F 20.5 °F 12% 30.06 in 10.0 mi SSW 8.1 mph - N/A   Clear
12:55 PM 77.2 °F 21.4 °F 12% 30.06 in 10.0 mi SSW 9.2 mph - N/A   Clear
1:15 PM 79.5 °F 21.7 °F 12% 30.04 in 10.0 mi SW 10.4 mph - N/A   Clear
1:35 PM 81.1 °F 20.7 °F 11% 30.02 in 10.0 mi WSW 10.4 mph - N/A   Clear
1:55 PM 83.3 °F 20.5 °F 10% 30.01 in 10.0 mi West 11.5 mph 18.4 mph N/A   Clear
2:15 PM 84.2 °F 19.6 °F 9% 30.00 in 10.0 mi WNW 12.7 mph 21.9 mph N/A   Clear
2:35 PM 84.7 °F 19.6 °F 9% 29.99 in 10.0 mi West 17.3 mph 24.2 mph N/A   Clear
2:55 PM 85.8 °F 19.8 °F 9% 29.98 in 10.0 mi West 10.4 mph 23.0 mph N/A   Clear
3:15 PM 85.8 °F 19.4 °F 9% 29.98 in 10.0 mi West 9.2 mph - N/A   Clear
3:35 PM 84.6 °F 19.4 °F 9% 29.98 in 10.0 mi WSW 11.5 mph - N/A   Clear
3:55 PM 86.0 °F 19.4 °F 9% 29.97 in 10.0 mi West 6.9 mph 16.1 mph N/A   Clear
4:15 PM 85.5 °F 19.4 °F 9% 29.97 in 10.0 mi West 6.9 mph - N/A   Clear
4:35 PM 84.7 °F 19.2 °F 9% 29.96 in 10.0 mi West 9.2 mph - N/A   Clear
4:55 PM 84.4 °F 19.2 °F 9% 29.96 in 10.0 mi NW 4.6 mph - N/A   Clear
5:15 PM 86.0 °F 17.6 °F 8% 29.96 in 10.0 mi West 9.2 mph 19.6 mph N/A   Clear
5:35 PM 85.6 °F 18.3 °F 8% 29.97 in 10.0 mi WNW 13.8 mph 18.4 mph N/A   Clear
5:55 PM 84.7 °F 18.5 °F 9% 29.96 in 10.0 mi West 9.2 mph 17.3 mph N/A   Clear
6:15 PM 83.8 °F 18.5 °F 9% 29.97 in 10.0 mi West 11.5 mph - N/A   Clear
6:35 PM 82.4 °F 18.5 °F 9% 29.97 in 10.0 mi WNW 6.9 mph - N/A   Clear
6:55 PM 79.5 °F 18.5 °F 10% 29.98 in 10.0 mi NW 6.9 mph - N/A   Clear
7:15 PM 76.3 °F 18.3 °F 11% 29.99 in 10.0 mi NNW 6.9 mph - N/A   Clear
7:35 PM 72.1 °F 17.6 °F 13% 29.99 in 10.0 mi NNW 8.1 mph - N/A   Clear
7:55 PM 72.0 °F 17.8 °F 13% 30.00 in 10.0 mi NNW 8.1 mph - N/A   Clear
8:15 PM 70.5 °F 18.0 °F 14% 30.00 in 10.0 mi NNW 9.2 mph - N/A   Clear
8:35 PM 70.3 °F 17.6 °F 13% 30.01 in 10.0 mi NNW 9.2 mph - N/A   Clear
8:55 PM 69.1 °F 17.6 °F 14% 30.01 in 10.0 mi North 6.9 mph - N/A   Clear
9:15 PM 68.9 °F 17.6 °F 14% 30.02 in 10.0 mi North 8.1 mph - N/A   Clear
9:35 PM 67.5 °F 17.6 °F 15% 30.02 in 10.0 mi North 9.2 mph - N/A   Clear
9:55 PM 67.5 °F 17.4 °F 15% 30.03 in 10.0 mi Calm Calm - N/A   Clear
10:15 PM 67.8 °F 17.6 °F 15% 30.04 in 10.0 mi Calm Calm - N/A   Clear
10:35 PM 68.5 °F 18.1 °F 15% 30.04 in 10.0 mi Calm Calm - N/A   Clear
10:55 PM 65.8 °F 18.0 °F 16% 30.05 in 10.0 mi Calm Calm - N/A   Clear
11:15 PM 67.1 °F 18.3 °F 15% 30.05 in 10.0 mi NNW 4.6 mph - N/A   Clear
11:35 PM 62.6 °F 17.2 °F 17% 30.05 in 10.0 mi North 4.6 mph - N/A   Clear
11:55 PM 63.5 °F 17.8 °F 17% 30.05 in 10.0 mi NNE 3.5 mph - N/A   Clear